Back to catalog

STARLINK-30080

AliveCommunicationsVLEO
NORAD 56705·PAYLOAD·🇺🇸 United States

Launched May 19, 2023 from Cape Canaveral Space Force Station

Loading…

Next Passes (next 24 hours)

TLE

FreshSource: CelesTrak SupGP

Epoch: Sep 14, 2026, 13:32 UTC

1 56705C 23067T   26257.56437500  .00047516  00000+0  17213-2 0  2578
2 56705  43.0001 276.3957 0001494 278.7413 238.6075 15.27548560    17

Track STARLINK-30080 in real time with AllMySat

Download on the App Store